Regional Weather Roundup
Issued by NWS

Home | Current Version | Previous Version | Text Only | Print | Product List | Glossary On
Versions: 1 2 3 4 5 6 7 8 9 10 11 12 13 14 15 16 17 18 19 20 21 22 23 24 25 26 27
000
ASUS46 KPQR 050510
RWROR

OREGON REGIONAL WEATHER ROUNDUP
NATIONAL WEATHER SERVICE PORTLAND OR
1000 PM PDT WED MAY 04 2016

NOTE: "FAIR" INDICATES FEW OR NO CLOUDS BELOW 12,000 FEET WITH
NO SIGNIFICANT WEATHER AND/OR OBSTRUCTIONS TO VISIBILITY.

ORZ001>013-050600-
NORTHWEST OREGON


CITY           SKY/WX    TMP DP  RH WIND       PRES   REMARKS
ASTORIA        CLOUDY    52  45  77 NW16      30.04R
NEWPORT        CLOUDY    52  45  76 N17G23    30.04S
PORTLAND       CLOUDY    58  49  72 NW15      29.98R
VANCOUVER WA   CLOUDY    57  49  74 NW10      29.98R
SCAPPOOSE      CLOUDY    55  48  77 NW5       29.98R
HILLSBORO      CLOUDY    56  48  74 NW12      29.99R
AURORA         CLOUDY    56  49  77 NW6       29.99R
MCMINNVILLE    CLOUDY    59  48  67 N10       29.99R
SALEM          CLOUDY    58  51  78 N9        29.97R
CORVALLIS        N/A     54  48  82 NW9       29.99R
EUGENE         CLOUDY    55  52  89 N3        29.98R
$$

ORZ021-028-050600-
SOUTHWEST OREGON


CITY           SKY/WX    TMP DP  RH WIND       PRES   REMARKS
NORTH BEND     CLOUDY    54  48  82 N18G28    30.01R
BROOKINGS      CLOUDY    55  52  89 CALM      29.90R
ROSEBURG       CLOUDY    59  52  77 NW5       29.96R
SEXTON SUMMIT  FOG       48  48 100 N6        29.95S VSB 1/4
MEDFORD        CLOUDY    56  52  86 E5        29.91R
$$

ORZ014>016-041-050600-
COLUMBIA GORGE


CITY           SKY/WX    TMP DP  RH WIND       PRES   REMARKS
TROUTDALE      CLOUDY    58  49  72 W5        29.97S
THE DALLES     CLOUDY    59  51  75 NW13      29.90R
$$

ORZ029>031-041-044-049-050-061>064-502-503-505>511-050600-
EASTERN OREGON


CITY           SKY/WX    TMP DP  RH WIND       PRES   REMARKS
REDMOND        CLOUDY    54  50  86 CALM      29.95R
BEND           CLOUDY    54  52  94 CALM      29.96S
PRINEVILLE     CLOUDY    54  52  94 N5        29.96S
KLAMATH FALLS  CLOUDY    51  46  83 CALM      29.95F
LAKEVIEW       CLOUDY    48  45  87 N6        29.99F
HERMISTON      CLOUDY    60  56  86 SW10G22   29.87S
PENDLETON      CLOUDY    58  52  80 SE5       29.90S
JOHN DAY       MOCLDY    54  48  82 SW9       29.94F
MEACHAM        NOT AVBL
LA GRANDE      CLOUDY    61  41  48 W17G28    29.90R
BAKER CITY     CLOUDY    59  42  53 NE5       29.88R
BURNS          MOCLDY    51  42  71 W12       29.95R
ROME             N/A     63  38  39 N12       29.86R
ONTARIO        MOCLDY    63  47  55 SW6       29.80R
$$




USA.gov is the U.S. government's official web portal to all federal, state and local government web resources and services.